Stations météo

réclame
Mon MeteoGroup
Cluanie Inn No 3, Grande-Bretagne (99117): Température de l'air & dewpoint: 11.10.2018 04:00:00 - 17.10.2018 04:00:00 (BST)Cluanie Inn No 3, Grande-Bretagne (99117): Quantités de précipitations: 11.10.2018 04:00:00 - 17.10.2018 04:00:00 (BST)
Date & Time tt [°C] td [°C] rr [mm]
17.10.2018 04:00:00 8,9 5,5 0,2
17.10.2018 03:00:00 8,9 6,7 0,8
17.10.2018 02:00:00 9,2 6,2 0,2
17.10.2018 01:00:00 10,3 5,2 0,0
17.10.2018 00:00:00 10,5 5,9 0,0
16.10.2018 23:00:00 10,5 7,1 0,8
16.10.2018 22:00:00 11,3 8,3 2,2
16.10.2018 21:00:00 11,2 8,1 1,6
16.10.2018 20:00:00 12,0 7,4 0,8
16.10.2018 19:00:00 11,5 8,0 0,4
16.10.2018 18:00:00 11,4 8,0 0,2
16.10.2018 17:00:00 11,6 7,6 0,2
16.10.2018 16:00:00 12,2 6,4 0,0
16.10.2018 15:00:00 12,1 7,2 0,4
16.10.2018 14:00:00 11,5 8,8 0,4
16.10.2018 13:00:00 10,8 8,4 0,4
16.10.2018 12:00:00 10,3 7,5 0,2
16.10.2018 11:00:00 11,0 4,2 0,0
16.10.2018 10:00:00 10,9 3,7 0,4
16.10.2018 09:00:00 10,2 5,4 0,2
16.10.2018 08:00:00 10,7 3,9 0,0
16.10.2018 07:00:00 10,5 3,2 0,0
16.10.2018 06:00:00 8,8 2,8 0,0
16.10.2018 05:00:00 8,2 2,3 0,0
16.10.2018 04:00:00 8,1 1,9 0,0
16.10.2018 03:00:00 7,9 2,2 0,0
16.10.2018 02:00:00 9,0 2,2 0,0
16.10.2018 01:00:00 8,2 3,5 0,0
16.10.2018 00:00:00 8,1 4,3 0,0
15.10.2018 23:00:00 8,1 4,8 0,0
15.10.2018 22:00:00 8,3 4,8 0,0
15.10.2018 21:00:00 8,3 4,6 0,0
15.10.2018 20:00:00 8,3 4,3 0,0
15.10.2018 19:00:00 8,8 4,7 0,0
15.10.2018 18:00:00 10,3 5,0 0,0
15.10.2018 17:00:00 10,7 5,6 0,0
15.10.2018 16:00:00 11,2 5,1 0,0
15.10.2018 15:00:00 11,1 5,1 0,0
15.10.2018 14:00:00 11,7 5,0 0,0
15.10.2018 13:00:00 10,6 5,7 0,0
15.10.2018 12:00:00 10,7 4,4 0,0
15.10.2018 11:00:00 10,9 5,2 0,0
15.10.2018 10:00:00 9,6 5,1 0,0
15.10.2018 09:00:00 9,0 4,9 0,0
15.10.2018 08:00:00 7,0 3,2 0,0
15.10.2018 07:00:00 8,0 3,7 0,0
15.10.2018 06:00:00 7,0 3,9 0,0
15.10.2018 05:00:00 7,7 4,4 0,0
15.10.2018 04:00:00 7,5 4,7 0,0
15.10.2018 03:00:00 7,2 4,7 0,0
15.10.2018 02:00:00 7,5 4,5 0,0
15.10.2018 01:00:00 7,2 4,3 0,0
15.10.2018 00:00:00 6,8 4,4 0,0
14.10.2018 23:00:00 6,8 4,2 0,0
14.10.2018 22:00:00 5,6 3,5 0,0
14.10.2018 21:00:00 7,0 4,5 0,0
14.10.2018 20:00:00 7,4 4,4 0,2
14.10.2018 19:00:00 7,1 2,6 0,0
14.10.2018 18:00:00 8,3 2,2 0,0
14.10.2018 17:00:00 10,2 3,3 0,0
14.10.2018 16:00:00 9,6 2,7 0,0
14.10.2018 15:00:00 10,3 2,0 0,0
14.10.2018 14:00:00 11,4 2,9 0,0
14.10.2018 13:00:00 10,1 3,7 0,0
14.10.2018 12:00:00 7,9 5,7 0,0
14.10.2018 11:00:00 6,9 4,6 0,0
14.10.2018 10:00:00 5,2 4,6 0,0
14.10.2018 09:00:00 4,2 3,8 0,0
14.10.2018 08:00:00 4,0 3,1 0,0
14.10.2018 07:00:00 5,1 3,6 0,0
14.10.2018 06:00:00 5,9 3,9 0,0
14.10.2018 05:00:00 6,4 3,4 0,0
14.10.2018 04:00:00 6,2 4,2 0,2
14.10.2018 03:00:00 6,6 4,2 0,8
14.10.2018 02:00:00 7,1 5,4 0,4
14.10.2018 01:00:00 7,1 6,3 0,0
14.10.2018 00:00:00 7,1 6,4 0,2
13.10.2018 23:00:00 7,0 6,4 0,6
13.10.2018 22:00:00 7,4 6,4 0,6
13.10.2018 21:00:00 7,8 6,7 0,4
13.10.2018 20:00:00 7,6 7,1 0,8
13.10.2018 19:00:00 7,8 7,2 1,4
13.10.2018 18:00:00 8,6 6,8 2,0
13.10.2018 17:00:00 8,8 7,8 2,0
13.10.2018 16:00:00 9,0 8,5 3,4
13.10.2018 15:00:00 9,0 8,2 2,0
13.10.2018 14:00:00 9,2 8,0 1,2
13.10.2018 13:00:00 9,1 8,6 1,0
13.10.2018 12:00:00 9,1 8,6 0,6
13.10.2018 11:00:00 9,4 8,1 0,0
13.10.2018 10:00:00 9,1 7,6 0,2
13.10.2018 09:00:00 8,8 7,9 0,2
13.10.2018 08:00:00 8,6 7,5 0,8
13.10.2018 07:00:00 9,1 6,7 0,4
13.10.2018 06:00:00 10,7 5,6 0,0
13.10.2018 05:00:00 10,3 6,3 0,0
13.10.2018 04:00:00 11,0 5,9 0,0
13.10.2018 03:00:00 10,8 5,4 0,0
13.10.2018 02:00:00 9,7 7,0 1,2
13.10.2018 01:00:00 11,3 6,1 0,2
13.10.2018 00:00:00 11,9 5,6 0,2
12.10.2018 23:00:00 11,8 7,2 1,6
12.10.2018 22:00:00 12,1 6,3 1,4
12.10.2018 21:00:00 11,5 6,7 1,4
12.10.2018 20:00:00 12,9 5,5 0,2
12.10.2018 19:00:00 13,0 5,6 0,0
12.10.2018 18:00:00 12,8 6,8 0,4
12.10.2018 17:00:00 11,3 8,1 3,6
12.10.2018 16:00:00 11,5 6,8 2,4
12.10.2018 15:00:00 12,4 8,1 1,8
12.10.2018 14:00:00 14,2 5,8 0,2
12.10.2018 13:00:00 13,0 6,1 1,2
12.10.2018 12:00:00 12,9 5,1 0,4
12.10.2018 11:00:00 11,9 6,2 1,6
12.10.2018 10:00:00 11,6 7,1 4,2
12.10.2018 09:00:00 9,9 7,6 2,0
12.10.2018 08:00:00 9,3 6,5 1,8
12.10.2018 07:00:00 9,3 6,7 2,6
12.10.2018 06:00:00 9,2 6,5 0,4
12.10.2018 05:00:00 10,2 5,3 0,0
12.10.2018 04:00:00 9,1 5,7 0,0
12.10.2018 03:00:00 8,7 5,6 0,0
12.10.2018 02:00:00 8,5 6,2 0,0
12.10.2018 01:00:00 9,4 6,5 0,0
12.10.2018 00:00:00 9,6 6,5 0,0
11.10.2018 23:00:00 9,7 6,7 0,0
11.10.2018 22:00:00 9,5 6,6 0,0
11.10.2018 21:00:00 8,4 6,5 0,0
11.10.2018 20:00:00 9,8 7,7 0,2
11.10.2018 19:00:00 10,1 8,6 2,0
11.10.2018 18:00:00 13,7 10,5 2,0
11.10.2018 17:00:00 13,9 10,6 0,8
11.10.2018 16:00:00 13,6 11,2 0,0
11.10.2018 15:00:00 14,1 11,5 0,6
11.10.2018 14:00:00 14,9 10,9 0,0
11.10.2018 13:00:00 14,4 11,1 0,0
11.10.2018 12:00:00 13,7 10,9 0,0
11.10.2018 11:00:00 14,1 9,9 0,0
11.10.2018 10:00:00 13,6 9,6 0,0
11.10.2018 09:00:00 13,1 9,2 0,0
11.10.2018 08:00:00 12,6 8,3 0,0
11.10.2018 07:00:00 12,7 7,6 0,0
11.10.2018 06:00:00 13,0 7,2 0,0
11.10.2018 05:00:00 12,0 7,5 0,0
11.10.2018 04:00:00 13,8 8,4 0,0

tt = Température de l'air
td = dewpoint
rr = Quantités de précipitations

stations d'obs. à proximité